Content
SEND FEEDBACK

Daily
Averages
Monthly
Summary
United States of America

DOVER AIR FORCE BASE, DELAWARE


Home > North America > United States > Delaware
Elevation: 23 feet     Latitude: 39 01N     Longitude: 075 28W

WEATHER
 
SELECT A DAY
Number of Records: 227,483;   Date Range: 1/1/95 - 9/18/14
 
SHARE

PRINT THIS DATA

[ ← Previous Day ]
WEATHER ALMANAC - JANUARY 23, 2013
[ Next Day → ]
[ °C ]   °F
Weather ElementAverageHighLow
Temperature19.1 °F23.4 °F (2:55 pm)13.8 °F (5:55 am)
Dewpoint0.4 °F6.1 °F (10:55 pm)-3.1 °F (2:55 pm)
Humidity45.1 %56 % (5:55 am)31 % (2:55 pm)
Barometer30.26 in30.33 in (9:55 am)30.19 in (11:55 pm)
Wind Speed9.5 mph17.3 mph (2:55 pm)
Wind Gust21.9 mph (8:55 am)
Weather ElementAverage
Visibility10 mi
Wind DirectionW (267.4 °)

Weather ElementTotal
Precipitation---
Heating Degree Days46.4 (Base 65)
Averaged from 23 records on January 23, 2013
WEATHER CONDITIONS BREAKOUT
WIND DIRECTION BREAKOUT
WEATHER BY HOUR - JANUARY 23, 2013
[ °C ]   °F
Local TimeTemperatureDewpointHumidityBarometerVisibilityWind DirectionWind SpeedGust SpeedPrecipitationEventsConditions
1:55 AM15.4 °F0.0 °F51 %30.29 in10.0 miWNW (300°)9.2 mphClear
2:55 AM14.9 °F0.0 °F52 %30.30 in10.0 miWNW (290°)10.4 mphClear
3:55 AM15.1 °F-0.2 °F51 %30.29 in10.0 miWest (280°)9.2 mphOvercast
4:55 AM14.2 °F0.1 °F54 %30.30 in10.0 miWest (280°)9.2 mphClear
5:55 AM13.8 °F0.7 °F56 %30.30 in10.0 miWest (270°)5.8 mphClear
6:55 AM14.2 °F0.5 °F55 %30.31 in10.0 miWest (270°)9.2 mphClear
7:55 AM15.1 °F0.3 °F52 %30.32 in10.0 miWNW (290°)10.4 mphClear
8:55 AM17.1 °F0.0 °F47 %30.32 in10.0 miWest (270°)15.0 mph21.9 mphClear
9:55 AM19.2 °F-0.6 °F42 %30.33 in10.0 miWest (280°)16.1 mphClear
10:55 AM21.2 °F-0.8 °F38 %30.32 in10.0 miWest (270°)10.4 mphPartly Cloudy
11:55 AM22.1 °F-0.9 °F37 %30.28 in10.0 miWSW (250°)13.8 mph19.6 mphClear
12:55 PM22.5 °F-2.4 °F34 %30.24 in10.0 miWest (270°)13.8 mphClear
1:55 PM23.2 °F-2.9 °F32 %30.23 in10.0 miWest (270°)15.0 mphClear
2:55 PM23.4 °F-3.1 °F31 %30.22 in10.0 miWNW (290°)17.3 mphClear
3:55 PM23.2 °F-2.0 °F33 %30.23 in10.0 miWest (260°)10.4 mphMostly Cloudy
4:55 PM22.1 °F-2.2 °F35 %30.22 in10.0 miWest (280°)13.8 mphScattered Clouds
5:55 PM20.8 °F-0.9 °F39 %30.23 in10.0 miWNW (290°)6.9 mphScattered Clouds
6:55 PM20.3 °F4.1 °F50 %30.23 in10.0 miNorth (360°)3.5 mphMostly Cloudy
7:55 PM20.3 °F0.7 °F43 %30.21 in10.0 miCalmOvercast
8:55 PM19.8 °F3.6 °F50 %30.21 in10.0 miCalmOvercast
9:55 PM19.8 °F5.9 °F55 %30.20 in10.0 miNorth (360°)3.5 mphMostly Cloudy
10:55 PM20.7 °F6.1 °F53 %30.20 in10.0 miNorth (360°)6.9 mphOvercast
11:55 PM20.7 °F3.9 °F48 %30.19 in10.0 miNorth (360°)9.2 mphOvercast
Hourly data recorded from KDOV, located miles away from Dover Air Force Base, Delaware







STORIES FROM OUR PARTNERS